Find Starlink 3342

NORAD ID: 50816 Int'l Des: 2022-001 Owner: SPXS Country: US Constellation: starlink operational
LEOCIRCULAR

当前视图

正在加载3D地球...

About Starlink 3342

Starlink 3342 (NORAD 50816) is a starlink constellation satellite (v1.5) launched Jan 6, 2022 by SPXS of US. It operates in LEO, CIRCULAR orbit with a mass of 297.00 kg.

关于 Starlink 3342

正在加载描述...

即将过境

Passes for default location (London). Set your location on the main map for personalized predictions.

高度历史

Loading altitude history...

两行轨道根数

1 50816U 22001P 26166.47750876 .00021710 00000-0 10799-2 0 9999
2 50816 53.2128 84.0320 0003485 102.2312 257.9074 15.17580097245256
Epoch: Jun 15, 2026 • Age: 10 hours

当前状态

高度 516.0 km
速度 7.61 km/s
星下点 45.24°N, 91.65°W
发射日期 Jan 6, 2022
运行时间 4.4 years
类型 internet

技术详情

分类 Payload
质量 297.00 kg
干质量 275.00 kg
总质量 297.00 kg
长度 0.20 m
直径 2.80 m
跨度 9.00 m
形状 Box + pan
制造商 SPXS
平台类型 Starlink
阶段状态 In Orbit
所有者/国家 SPXS/US

Most Searched